Погода в Бенидорме

Испания     38°32′39″N   0°07′57″E
темп.,
°C
ветер,
м/с
пор.,
м/с
влажн.,
%
обл.,
%
осадки,
мм/ч
давл.,
гПа
погр.,
м
24 января, пн
пн2401:00+10ссв44691 0.1 1027575
04:00+10с45714 0.0 1027314
07:00+10с56674 0.0 1026314
10:00+11с446222 0.0 1028254
13:00+12св555994 0.0 1028868
16:00+13св666133 0.0 10271011
19:00+11ссв577154 0.0 1028605
22:00+11ссв577795 0.1 1029502
25 января, вт
вт2501:00+11св6780100 0.3 1030664
04:00+11ссв677856 0.2 1030607
07:00+11ссв577780 0.5 1030621
10:00+12св687452 0.5 1031902
13:00+13всв786828 0.8 10311147
16:00+13всв776720 0.1 10301068
19:00+11св68760 0.1 1031670
22:00+11св67763 0.0 1032714
26 января, ср
ср2601:00+11св67737 0.1 1032772
04:00+11ссв667414 0.0 1031508
07:00+10ссв56779 0.0 1031357
10:00+11св567527 0.0 1031414
13:00+13всв56697 0.0 1030841
16:00+13в65709 0.0 1029584
19:00+12всв557820 0.0 1029349
22:00+12св457717 0.0 1029286
27 января, чт
чт2701:00+11ссв447564 0.0 1029252
04:00+12св447272 0.0 1028264
07:00+11св447379 0.0 1028259
10:00+12св557312 0.0 1029362
13:00+13всв55685 0.0 1029579
16:00+13в557079 0.0 1028456
19:00+12всв557788 0.0 1029326
22:00+12ссв457387 0.0 1030270
28 января, пт
пт2801:00+11ссв44694 0.0 1030219
04:00+11с33665 0.0 1030143
07:00+11с21590 0.0 1029134
10:00+12юз11551 0.0 1031227
13:00+13юз335431 0.0 1029402
16:00+13ю336334 0.0 1028267
19:00+11юз22710 0.0 1028170
22:00+11зюз11660 0.0 1029122